Flag for Germany Weather past 2 weeks in Gladbeck, North Rhine-Westphalia, Germany

Now
66 °F

Scattered clouds.


Feels Like: 66 °F
Forecast: 55 / 73 °F
Wind: 2 mph from Southeast

Location: Duesseldorf

Current Time: Aug 27, 2014 at 8:58:13 PM

Latest Report: Aug 27, 2014 at 8:00 PM


Visibility: 38 mi

Pressure: 30.01 "Hg

Humidity: 49%

Dew point: 46 °F

Location of GladbeckLocation

Historic Weather in Gladbeck — Graph

°F

Gladbeck temperature yesterday

Maximum temperature yesterday: 58 °F (at 12:00 PM)
Minimum temperature yesterday: 56 °F (at 7:00 AM)
Average temperature yesterday: 57 °F

Past Weeks' High & Low Weather Summary

 TemperatureHumidityPressure
High69 °F (Aug 27, 4:00 PM)96% (Aug 21, 3:00 AM)30.10 "Hg (Aug 21, 3:00 AM)
Low45 °F (Aug 21, 6:00 AM)42% (Aug 27, 6:00 PM)29.63 "Hg (Aug 26, 6:00 AM)
Average58 °F78%29.90 "Hg
* Reported Aug 12 8:00 PM — Aug 27 8:00 PM, Gladbeck, Weather by CustomWeather, © 2014

Note: Actual official high and low records may vary slightly from our data, if they occured in-between our weather recording intervals... More about our weather records

Advertising

Gladbeck weather history for previous 24 hours

 ConditionsComfort  
Time TempWeatherWind HumidityBarometerVisibility
8:00 PM
Aug 27
66 °FScattered clouds.2 mph49%30.01 "Hg37 mi
7:00 PM68 °FScattered clouds.3 mph45%30.01 "Hg37 mi
6:00 PM69 °FPassing clouds.5 mph42%30.01 "Hg37 mi
4:00 PM69 °FPassing clouds.2 mph44%30.01 "Hg25 mi
3:00 PM69 °FPassing clouds.2 mph50%30.02 "Hg25 mi
2:00 PM67 °FPassing clouds.12 mph45%30.02 "Hg2 mi
1:00 PM66 °FPassing clouds.3 mph48%30.02 "Hg25 mi
12:00 PM65 °FPassing clouds.3 mph49%30.02 "Hg22 mi
9:00 AM56 °FFog.1 mph84%29.98 "Hg4 mi
8:00 AM51 °FFog.1 mph94%29.96 "Hg2 mi
7:00 AM49 °FFog.1 mph95%29.94 "Hg1 mi
6:00 AM51 °FFog.3 mph94%29.92 "Hg4 mi
5:00 AM51 °FFog.1 mph95%29.90 "Hg4 mi
4:00 AM52 °FFog.1 mph96%29.89 "Hg4 mi
3:00 AM53 °FPassing clouds.2 mph95%29.87 "Hg5 mi
2:00 AM54 °FFog.2 mph95%29.85 "Hg9 mi
1:00 AM56 °FPassing clouds.1 mph93%29.84 "Hg12 mi
12:00 AM57 °FOvercast.2 mph93%29.82 "Hg16 mi
10:00 PM
Aug 26
56 °FOvercast.2 mph91%29.79 "Hg25 mi
9:00 PM56 °FLight rain. Overcast.5 mph92%29.76 "Hg12 mi
8:00 PM57 °FLight rain. Overcast.5 mph92%29.75 "Hg9 mi
Weather by CustomWeather, © 2014

See weather overviewHow to use our weather pages